Time,TemperatureF,DewpointF,PressureIn,WindDirection,WindDirectionDegrees,WindSpeedMPH,WindSpeedGustMPH,Humidity,HourlyPrecipIn,Conditions,Clouds,dailyrainin,SoftwareType,DateUTC
2013-01-29 00:03:00,39.0,39.0,-100.00,East,85,8.0,12.0,99,0.00,,,-99.99,,2013-01-29 05:03:00,
2013-01-29 00:12:00,39.0,39.0,-100.00,East,80,6.0,7.0,99,0.00,,,-99.99,,2013-01-29 05:12:00,
2013-01-29 00:21:00,39.0,39.0,-100.00,ENE,70,4.0,7.0,99,0.00,,,-99.99,,2013-01-29 05:21:00,
2013-01-29 00:32:00,39.0,39.0,-100.00,ENE,70,4.0,7.0,99,0.00,,,-99.99,,2013-01-29 05:32:00,
2013-01-29 00:42:00,39.0,39.0,-100.00,ENE,70,4.0,6.0,99,0.00,,,-99.99,,2013-01-29 05:42:00,
2013-01-29 00:52:00,39.0,39.0,-100.00,ENE,75,3.0,6.0,99,0.00,,,-99.99,,2013-01-29 05:52:00,
2013-01-29 01:02:00,38.0,38.0,-100.00,East,85,2.0,5.0,99,0.00,,,-99.99,,2013-01-29 06:02:00,
2013-01-29 01:11:00,38.0,38.0,-100.00,East,80,2.0,2.0,99,0.00,,,-99.99,,2013-01-29 06:11:00,
2013-01-29 01:21:00,38.0,38.0,-100.00,East,85,2.0,3.0,99,0.00,,,-99.99,,2013-01-29 06:21:00,
2013-01-29 01:32:00,38.0,38.0,-100.00,East,85,2.0,3.0,99,0.00,,,-99.99,,2013-01-29 06:32:00,
2013-01-29 01:42:00,38.0,38.0,-100.00,ESE,105,0.0,1.0,99,0.00,,,-99.99,,2013-01-29 06:42:00,
2013-01-29 01:52:00,38.0,38.0,-100.00,ESE,105,0.0,0.0,99,0.00,,,-99.99,,2013-01-29 06:52:00,
2013-01-29 02:02:00,38.0,38.0,-100.00,ESE,105,0.0,0.0,99,0.00,,,-99.99,,2013-01-29 07:02:00,
2013-01-29 02:11:00,38.0,38.0,-100.00,ESE,105,0.0,0.0,99,0.00,,,-99.99,,2013-01-29 07:11:00,
2013-01-29 02:21:00,38.0,38.0,-100.00,ESE,105,0.0,0.0,99,0.00,,,-99.99,,2013-01-29 07:21:00,
2013-01-29 02:32:00,38.0,38.0,-100.00,SSE,160,0.0,0.0,99,0.00,,,-99.99,,2013-01-29 07:32:00,
2013-01-29 02:42:00,38.0,38.0,-100.00,SW,225,0.0,2.0,99,0.00,,,-99.99,,2013-01-29 07:42:00,
2013-01-29 02:52:00,38.0,38.0,-100.00,SW,230,1.0,2.0,99,0.00,,,-99.99,,2013-01-29 07:52:00,
2013-01-29 03:02:00,38.0,38.0,-100.00,West,275,2.0,2.0,99,0.00,,,-99.99,,2013-01-29 08:02:00,
2013-01-29 03:11:00,38.0,38.0,-100.00,WSW,245,1.0,3.0,99,0.00,,,-99.99,,2013-01-29 08:11:00,
2013-01-29 03:21:00,38.0,38.0,-100.00,WNW,295,2.0,3.0,99,0.00,,,-99.99,,2013-01-29 08:21:00,
2013-01-29 03:32:00,38.0,38.0,-100.00,WNW,290,3.0,4.0,99,0.00,,,-99.99,,2013-01-29 08:32:00,
2013-01-29 03:42:00,38.0,38.0,-100.00,WNW,290,3.0,4.0,99,0.00,,,-99.99,,2013-01-29 08:42:00,
2013-01-29 03:52:00,38.0,38.0,-100.00,WNW,290,4.0,5.0,99,0.00,,,-99.99,,2013-01-29 08:52:00,
2013-01-29 04:02:00,38.0,38.0,-100.00,WNW,300,6.0,7.0,100,0.00,,,-99.99,,2013-01-29 09:02:00,
2013-01-29 04:11:00,38.0,38.0,-100.00,WNW,295,4.0,7.0,99,0.00,,,-99.99,,2013-01-29 09:11:00,
2013-01-29 04:21:00,38.0,38.0,-100.00,West,280,4.0,6.0,99,0.00,,,-99.99,,2013-01-29 09:21:00,
2013-01-29 04:32:00,38.0,38.0,-100.00,WNW,295,6.0,6.0,99,0.00,,,-99.99,,2013-01-29 09:32:00,
2013-01-29 04:42:00,38.0,38.0,-100.00,NW,305,7.0,8.0,99,0.00,,,-99.99,,2013-01-29 09:42:00,
2013-01-29 04:51:00,38.0,38.0,-100.00,WNW,295,7.0,9.0,99,0.00,,,-99.99,,2013-01-29 09:51:00,
2013-01-29 05:01:00,38.0,38.0,-100.00,WNW,295,7.0,9.0,99,0.00,,,-99.99,,2013-01-29 10:01:00,
2013-01-29 05:11:00,38.0,38.0,-100.00,WNW,295,7.0,9.0,99,0.00,,,-99.99,,2013-01-29 10:11:00,
2013-01-29 05:21:00,38.0,38.0,-100.00,WNW,295,9.0,10.0,99,0.00,,,-99.99,,2013-01-29 10:21:00,
2013-01-29 05:32:00,38.0,38.0,-100.00,WNW,300,9.0,11.0,99,0.00,,,-99.99,,2013-01-29 10:32:00,
2013-01-29 05:42:00,38.0,38.0,-100.00,WNW,295,9.0,11.0,99,0.00,,,-99.99,,2013-01-29 10:42:00,
2013-01-29 05:52:00,38.0,38.0,-100.00,WNW,295,7.0,9.0,99,0.00,,,-99.99,,2013-01-29 10:52:00,
2013-01-29 06:02:00,38.0,38.0,-100.00,NW,305,7.0,9.0,99,0.00,,,-99.99,,2013-01-29 11:02:00,
2013-01-29 06:11:00,38.0,38.0,-100.00,NW,305,7.0,9.0,99,0.00,,,-99.99,,2013-01-29 11:11:00,
2013-01-29 06:22:00,38.0,38.0,-100.00,NW,305,7.0,11.0,100,0.00,,,-99.99,,2013-01-29 11:22:00,
2013-01-29 06:32:00,39.0,39.0,-100.00,NW,315,8.0,9.0,99,0.00,,,-99.99,,2013-01-29 11:32:00,
2013-01-29 06:42:00,39.0,39.0,-100.00,NW,305,7.0,10.0,99,0.00,,,-99.99,,2013-01-29 11:42:00,
2013-01-29 06:52:00,39.0,39.0,-100.00,WNW,290,7.0,9.0,99,0.00,,,-99.99,,2013-01-29 11:52:00,
2013-01-29 07:03:00,40.0,40.0,-100.00,NW,310,7.0,9.0,99,0.00,,,-99.99,,2013-01-29 12:03:00,
2013-01-29 07:12:00,40.0,40.0,-100.00,NW,305,7.0,9.0,99,0.00,,,-99.99,,2013-01-29 12:12:00,
2013-01-29 07:22:00,40.0,40.0,-100.00,WNW,295,7.0,9.0,100,0.00,,,-99.99,,2013-01-29 12:22:00,
2013-01-29 07:33:00,40.0,40.0,-100.00,WNW,300,7.0,10.0,99,0.00,,,-99.99,,2013-01-29 12:33:00,
2013-01-29 07:43:00,40.0,40.0,-100.00,WNW,300,8.0,9.0,99,0.00,,,-99.99,,2013-01-29 12:43:00,
2013-01-29 07:52:00,41.0,41.0,-100.00,WNW,300,8.0,10.0,99,0.00,,,-99.99,,2013-01-29 12:52:00,
2013-01-29 08:02:00,41.0,41.0,-100.00,WNW,295,7.0,10.0,99,0.00,,,-99.99,,2013-01-29 13:02:00,
2013-01-29 08:12:00,41.0,41.0,-100.00,NW,310,7.0,9.0,99,0.00,,,-99.99,,2013-01-29 13:12:00,
2013-01-29 08:22:00,47.0,47.0,-100.00,NNW,340,11.0,15.0,99,0.00,,,-99.99,,2013-01-29 13:22:00,
2013-01-29 08:32:00,47.0,47.0,-100.00,NW,325,8.0,12.0,99,0.00,,,-99.99,,2013-01-29 13:32:00,
2013-01-29 08:42:00,47.0,47.0,-100.00,NW,320,9.0,12.0,99,0.00,,,-99.99,,2013-01-29 13:42:00,
2013-01-29 08:52:00,45.0,45.0,-100.00,WNW,290,7.0,11.0,99,0.00,,,-99.99,,2013-01-29 13:52:00,
2013-01-29 09:02:00,45.0,45.0,-100.00,WNW,300,9.0,13.0,99,0.00,,,-99.99,,2013-01-29 14:02:00,
2013-01-29 09:12:00,45.0,45.0,-100.00,WNW,290,9.0,13.0,99,0.00,,,-99.99,,2013-01-29 14:12:00,
2013-01-29 09:22:00,45.0,45.0,-100.00,WNW,295,10.0,13.0,99,0.00,,,-99.99,,2013-01-29 14:22:00,
2013-01-29 09:33:00,46.0,46.0,-100.00,WNW,300,11.0,16.0,99,0.00,,,-99.99,,2013-01-29 14:33:00,
2013-01-29 09:43:00,47.0,47.0,-100.00,NW,320,12.0,18.0,99,0.00,,,-99.99,,2013-01-29 14:43:00,
2013-01-29 09:52:00,49.0,49.0,-100.00,NW,315,12.0,19.0,99,0.00,,,-99.99,,2013-01-29 14:52:00,
2013-01-29 10:02:00,49.0,49.0,-100.00,NW,315,14.0,19.0,99,0.00,,,-99.99,,2013-01-29 15:02:00,
2013-01-29 10:12:00,49.0,49.0,-100.00,NW,320,13.0,21.0,99,0.00,,,-99.99,,2013-01-29 15:12:00,
2013-01-29 10:22:00,50.0,49.0,-100.00,NW,325,14.0,20.0,99,0.00,,,-99.99,,2013-01-29 15:22:00,
2013-01-29 10:33:00,50.0,50.0,-100.00,NW,325,14.0,24.0,99,0.00,,,-99.99,,2013-01-29 15:33:00,
2013-01-29 10:43:00,50.0,50.0,-100.00,NW,320,16.0,21.0,99,0.00,,,-99.99,,2013-01-29 15:43:00,
2013-01-29 10:53:00,51.0,51.0,-100.00,NW,325,15.0,23.0,99,0.00,,,-99.99,,2013-01-29 15:53:00,
2013-01-29 11:03:00,51.0,51.0,-100.00,NW,315,17.0,25.0,99,0.00,,,-99.99,,2013-01-29 16:03:00,
2013-01-29 11:12:00,51.0,51.0,-100.00,NW,325,17.0,23.0,99,0.00,,,-99.99,,2013-01-29 16:12:00,
2013-01-29 11:23:00,52.0,52.0,-100.00,NNW,330,16.0,21.0,99,0.00,,,-99.99,,2013-01-29 16:23:00,
2013-01-29 11:32:00,52.0,52.0,-100.00,NW,325,14.0,19.0,100,0.00,,,-99.99,,2013-01-29 16:32:00,
2013-01-29 11:43:00,52.0,52.0,-100.00,North,355,9.0,18.0,99,0.00,,,-99.99,,2013-01-29 16:43:00,
2013-01-29 11:52:00,52.0,52.0,-100.00,North,0,8.0,14.0,99,0.00,,,-99.99,,2013-01-29 16:52:00,
2013-01-29 12:03:00,53.0,53.0,-100.00,NNW,345,9.0,14.0,99,0.00,,,-99.99,,2013-01-29 17:03:00,
2013-01-29 12:12:00,53.0,53.0,-100.00,North,0,6.0,13.0,99,0.00,,,-99.99,,2013-01-29 17:12:00,
2013-01-29 12:22:00,53.0,53.0,-100.00,NNW,335,7.0,11.0,99,0.00,,,-99.99,,2013-01-29 17:22:00,
2013-01-29 12:33:00,53.0,53.0,-100.00,NNW,335,7.0,11.0,99,0.00,,,-99.99,,2013-01-29 17:33:00,
2013-01-29 12:42:00,53.0,53.0,-100.00,NNW,345,9.0,13.0,99,0.00,,,-99.99,,2013-01-29 17:42:00,
2013-01-29 12:52:00,53.0,53.0,-100.00,NNW,335,9.0,12.0,99,0.00,,,-99.99,,2013-01-29 17:52:00,
2013-01-29 13:04:00,54.0,54.0,-100.00,NNW,330,9.0,13.0,99,0.00,,,-99.99,,2013-01-29 18:04:00,
2013-01-29 13:13:00,54.0,54.0,-100.00,NNW,330,8.0,12.0,99,0.00,,,-99.99,,2013-01-29 18:13:00,
2013-01-29 13:22:00,54.0,54.0,-100.00,NW,325,9.0,15.0,99,0.00,,,-99.99,,2013-01-29 18:22:00,
2013-01-29 13:33:00,54.0,54.0,-100.00,NNW,330,7.0,16.0,99,0.00,,,-99.99,,2013-01-29 18:33:00,
2013-01-29 13:42:00,55.0,55.0,-100.00,NNW,340,9.0,13.0,99,0.00,,,-99.99,,2013-01-29 18:42:00,
2013-01-29 13:52:00,55.0,55.0,-100.00,North,350,7.0,11.0,99,0.00,,,-99.99,,2013-01-29 18:52:00,
2013-01-29 14:03:00,55.0,55.0,-100.00,NNW,340,6.0,12.0,99,0.00,,,-99.99,,2013-01-29 19:03:00,
2013-01-29 14:12:00,55.0,55.0,-100.00,North,0,7.0,12.0,99,0.00,,,-99.99,,2013-01-29 19:12:00,
2013-01-29 14:22:00,55.0,55.0,-100.00,North,350,7.0,13.0,98,0.00,,,-99.99,,2013-01-29 19:22:00,
2013-01-29 14:32:00,55.0,54.0,-100.00,NNW,335,7.0,11.0,97,0.00,,,-99.99,,2013-01-29 19:32:00,
2013-01-29 14:42:00,55.0,54.0,-100.00,NNW,330,8.0,12.0,97,0.00,,,-99.99,,2013-01-29 19:42:00,
2013-01-29 14:52:00,55.0,55.0,-100.00,NNW,330,9.0,12.0,97,0.00,,,-99.99,,2013-01-29 19:52:00,
2013-01-29 15:03:00,55.0,55.0,-100.00,NNW,330,9.0,12.0,97,0.00,,,-99.99,,2013-01-29 20:03:00,
2013-01-29 15:12:00,56.0,55.0,-100.00,NW,320,9.0,12.0,97,0.00,,,-99.99,,2013-01-29 20:12:00,
2013-01-29 15:22:00,56.0,55.0,-100.00,NW,325,8.0,14.0,96,0.00,,,-99.99,,2013-01-29 20:22:00,
2013-01-29 15:33:00,56.0,55.0,-100.00,NW,315,7.0,11.0,96,0.00,,,-99.99,,2013-01-29 20:33:00,
2013-01-29 15:42:00,55.0,55.0,-100.00,NW,305,7.0,9.0,96,0.00,,,-99.99,,2013-01-29 20:42:00,
2013-01-29 15:53:00,55.0,55.0,-100.00,NW,315,7.0,11.0,96,0.00,,,-99.99,,2013-01-29 20:53:00,
2013-01-29 16:03:00,55.0,55.0,-100.00,NW,310,7.0,11.0,96,0.00,,,-99.99,,2013-01-29 21:03:00,
2013-01-29 16:12:00,55.0,55.0,-100.00,NW,310,9.0,12.0,96,0.00,,,-99.99,,2013-01-29 21:12:00,
2013-01-29 16:22:00,55.0,55.0,-100.00,NW,315,9.0,14.0,96,0.00,,,-99.99,,2013-01-29 21:22:00,
2013-01-29 16:33:00,56.0,55.0,-100.00,NW,320,9.0,12.0,96,0.00,,,-99.99,,2013-01-29 21:33:00,
2013-01-29 16:42:00,56.0,55.0,-100.00,NW,315,7.0,12.0,96,0.00,,,-99.99,,2013-01-29 21:42:00,
2013-01-29 16:52:00,56.0,55.0,-100.00,NW,325,8.0,13.0,97,0.55,,,-99.99,,2013-01-29 21:52:00,
2013-01-29 17:03:00,56.0,55.0,-100.00,NW,325,9.0,14.0,97,0.00,,,-99.99,,2013-01-29 22:03:00,
2013-01-29 17:12:00,56.0,55.0,-100.00,NNW,330,9.0,14.0,97,0.00,,,-99.99,,2013-01-29 22:12:00,
2013-01-29 17:22:00,56.0,55.0,-100.00,NW,315,10.0,14.0,97,0.00,,,-99.99,,2013-01-29 22:22:00,
2013-01-29 17:33:00,56.0,55.0,-100.00,NW,320,12.0,16.0,97,0.55,,,-99.99,,2013-01-29 22:33:00,
2013-01-29 17:42:00,56.0,55.0,-100.00,NNW,330,13.0,17.0,97,0.00,,,-99.99,,2013-01-29 22:42:00,
2013-01-29 17:52:00,56.0,55.0,-100.00,NW,320,12.0,19.0,97,0.00,,,-99.99,,2013-01-29 22:52:00,
2013-01-29 18:02:00,56.0,55.0,-100.00,NW,325,12.0,16.0,97,0.00,,,-99.99,,2013-01-29 23:02:00,
2013-01-29 18:12:00,56.0,55.0,-100.00,NNW,330,14.0,19.0,97,0.00,,,-99.99,,2013-01-29 23:12:00,
2013-01-29 18:23:00,56.0,56.0,-100.00,NW,320,10.0,19.0,97,0.55,,,-99.99,,2013-01-29 23:23:00,
2013-01-29 18:33:00,56.0,55.0,-100.00,NW,310,9.0,12.0,97,0.55,,,-99.99,,2013-01-29 23:33:00,
2013-01-29 18:42:00,56.0,55.0,-100.00,WNW,300,8.0,13.0,97,0.00,,,-99.99,,2013-01-29 23:42:00,
2013-01-29 18:52:00,56.0,55.0,-100.00,WNW,295,9.0,11.0,97,0.00,,,-99.99,,2013-01-29 23:52:00,
2013-01-29 19:03:00,55.0,55.0,-100.00,WNW,300,9.0,13.0,97,0.00,,,-99.99,,2013-01-30 00:03:00,
2013-01-29 19:12:00,55.0,55.0,-100.00,WNW,295,6.0,11.0,97,0.00,,,-99.99,,2013-01-30 00:12:00,
2013-01-29 19:22:00,55.0,55.0,-100.00,West,265,4.0,7.0,97,0.00,,,-99.99,,2013-01-30 00:22:00,
2013-01-29 19:32:00,55.0,55.0,-100.00,West,280,7.0,10.0,97,5.08,,,-99.99,,2013-01-30 00:32:00,
2013-01-29 19:43:00,55.0,54.0,-100.00,WNW,285,7.0,11.0,97,0.00,,,-99.99,,2013-01-30 00:43:00,
2013-01-29 19:52:00,55.0,54.0,-100.00,WNW,295,6.0,11.0,97,0.00,,,-99.99,,2013-01-30 00:52:00,
2013-01-29 20:02:00,55.0,54.0,-100.00,WNW,295,6.0,11.0,97,0.00,,,-99.99,,2013-01-30 01:02:00,
2013-01-29 20:12:00,55.0,54.0,-100.00,West,280,4.0,6.0,98,0.00,,,-99.99,,2013-01-30 01:12:00,
2013-01-29 20:22:00,55.0,54.0,-100.00,WNW,285,7.0,9.0,98,0.00,,,-99.99,,2013-01-30 01:22:00,
2013-01-29 20:32:00,55.0,54.0,-100.00,WNW,285,11.0,14.0,98,0.00,,,-99.99,,2013-01-30 01:32:00,
2013-01-29 20:42:00,54.0,54.0,-100.00,WNW,295,11.0,15.0,98,0.00,,,-99.99,,2013-01-30 01:42:00,
2013-01-29 20:52:00,54.0,54.0,-100.00,WNW,300,12.0,17.0,98,0.00,,,-99.99,,2013-01-30 01:52:00,
2013-01-29 21:02:00,54.0,53.0,-100.00,WNW,300,10.0,16.0,98,0.00,,,-99.99,,2013-01-30 02:02:00,
2013-01-29 21:12:00,54.0,53.0,-100.00,NW,315,10.0,15.0,98,0.00,,,-99.99,,2013-01-30 02:12:00,
2013-01-29 21:22:00,53.0,53.0,-100.00,NW,315,12.0,15.0,98,0.00,,,-99.99,,2013-01-30 02:22:00,
2013-01-29 21:33:00,53.0,53.0,-100.00,NW,305,12.0,17.0,98,0.00,,,-99.99,,2013-01-30 02:33:00,
2013-01-29 21:42:00,53.0,53.0,-100.00,NW,310,14.0,16.0,98,0.00,,,-99.99,,2013-01-30 02:42:00,
2013-01-29 21:52:00,54.0,53.0,-100.00,NW,310,15.0,19.0,98,0.00,,,-99.99,,2013-01-30 02:52:00,
2013-01-29 22:03:00,54.0,54.0,-100.00,NW,310,13.0,19.0,98,0.00,,,-99.99,,2013-01-30 03:03:00,
2013-01-29 22:12:00,55.0,54.0,-100.00,NW,315,14.0,17.0,96,0.00,,,-99.99,,2013-01-30 03:12:00,
2013-01-29 22:22:00,56.0,54.0,-100.00,NW,310,13.0,18.0,93,0.00,,,-99.99,,2013-01-30 03:22:00,
2013-01-29 22:32:00,56.0,53.0,-100.00,NW,310,12.0,19.0,89,0.00,,,-99.99,,2013-01-30 03:32:00,
2013-01-29 22:42:00,57.0,53.0,-100.00,NW,315,12.0,18.0,85,0.00,,,-99.99,,2013-01-30 03:42:00,
2013-01-29 22:52:00,57.0,52.0,-100.00,NW,315,13.0,18.0,82,0.00,,,-99.99,,2013-01-30 03:52:00,
2013-01-29 23:02:00,58.0,52.0,-100.00,NW,320,14.0,20.0,80,0.00,,,-99.99,,2013-01-30 04:02:00,
2013-01-29 23:12:00,58.0,51.0,-100.00,NW,320,16.0,22.0,77,0.00,,,-99.99,,2013-01-30 04:12:00,
2013-01-29 23:22:00,59.0,51.0,-100.00,NW,325,15.0,23.0,76,0.00,,,-99.99,,2013-01-30 04:22:00,
2013-01-29 23:32:00,59.0,51.0,-100.00,NW,315,15.0,24.0,75,0.00,,,-99.99,,2013-01-30 04:32:00,
2013-01-29 23:41:00,59.0,51.0,-100.00,NW,320,16.0,21.0,75,0.00,,,-99.99,,2013-01-30 04:41:00,
2013-01-29 23:52:00,59.0,51.0,-100.00,NW,315,16.0,28.0,75,0.00,,,-99.99,,2013-01-30 04:52:00,